This demonstration page uses our WeatherBlox Daily Observations layout. Learn more.

Left ArrowRight Arrow

41.55636, -103.73856

Hourly Observations for June 16, 2015

Temp ( °F °C ) Dew Point ( °F °C ) Humidity (%) Winds ( mph kmh ) Pressure ( in mb ) Visibility ( mi km ) Precip ( " mm )
12:53 am 00:53 Mostly Clear 63 17.2 53 11.7 70 70 SE 17 28 30.05 1018 10 16.0934 0 0.0254
1:53 am 01:53 Clear 61 16.1 55 12.8 81 81 SE 16 26 30.04 1017 10 16.0934 0 0
2:36 am 02:36 Mostly Cloudy 61 16.1 56 13.3 84 84 SE 13 20 30 1016 10 16.0934 0 0
2:53 am 02:53 Cloudy 61 16.1 57 13.9 87 87 ESE 10 17 30.03 1017 10 16.0934 0 0
3:53 am 03:53 Cloudy 62 16.7 58 14.4 86 86 ESE 12 19 30 1016 10 16.0934 0 0
4:53 am 04:53 Cloudy 63 17.2 59 15 87 87 SE 9 15 29.97 1015 10 16.0934 0 0.0254
5:53 am 05:53 Cloudy with Light Rain 64 17.8 60 15.6 87 87 SSE 8 13 29.98 1015 10 16.0934 0 0.0254
6:39 am 06:39 Cloudy with Light Rain 63 17.2 58 14.4 84 84 W 12 19 29.97 1015 10 16.0934 0.01 0.254
6:53 am 06:53 Cloudy with Light Rain 62 16.7 58 14.4 86 86 WSW 6 9 30.03 1017 10 16.0934 0.01 0.254
7:53 am 07:53 Cloudy with Light Rain 61 16.1 59 15 93 93 SSE 22 35 29.93 1014 6 9.65604 0.1 2.54
8:53 am 08:53 Sunny 63 17.2 59 15 87 87 Calm 29.96 1015 10 16.0934 0.01 0.254
9:53 am 09:53 Sunny 65 18.3 58 14.4 78 78 SE 7 11 29.95 1014 10 16.0934 0 0
10:53 am 10:53 Sunny 71 21.7 59 15 66 66 S 6 9 29.93 1014 10 16.0934 0 0
11:53 am 11:53 Sunny 73 22.8 57 13.9 57 57 VRB 3 6 29.92 1013 10 16.0934 0 0
12:53 pm 12:53 Sunny 76 24.4 58 14.4 54 54 SW 5 7 29.91 1013 10 16.0934 0 0
1:53 pm 13:53 Sunny 79 26 57 14 48 48 SSE 3 6 29.77 1008 10 16.0934 0 0
2:53 pm 14:53 Sunny 81 27.2 55 12.8 41 41 VRB 3 6 29.88 1012 10 16.0934 0 0
3:53 pm 15:53 Sunny 79 26.1 57 13.9 47 47 NE 9 15 29.85 1011 10 16.0934 0 0
4:51 pm 16:51 Sunny with Nearby Thunderstorms 77 25 55 13 47 47 ENE 8 13 29.71 1006 10 16.0934 0 0
4:53 pm 16:53 Sunny with Nearby Thunderstorms 76 24.4 57 13.9 52 52 NE 9 15 29.84 1011 10 16.0934 0 0
5:20 pm 17:20 Partly Cloudy with Thunderstorms 75 24 59 15 57 57 ENE 13 20 29.71 1006 10 16.0934 0 0
5:53 pm 17:53 Mostly Cloudy with Light Thunderstorms 72 22.2 61 16.1 68 68 NE 9 15 29.84 1010 10 16.0934 0 0.0254
6:22 pm 18:22 Cloudy with Nearby Thunderstorms 72 22 63 17 73 73 S 13 20 29.8 1009 10 16.0934 0 0
6:31 pm 18:31 Mostly Cloudy with Thunderstorms 70 21.1 59 15 68 68 S 12 19 29.8 1009 10 16.0934 0.01 0.254
6:53 pm 18:53 Mostly Cloudy with Thunderstorms 62 16.7 58 14.4 86 86 W 25 41 29.99 1016 4 6.43736 0.03 0.762
6:58 pm 18:58 Cloudy with Heavy Thunderstorms 61 16 57 14 88 88 W 21 33 30 1016 2.5 4.02335 0 0
7:13 pm 19:13 Cloudy with Heavy Thunderstorms 58 14.4 56 13.3 93 93 W 7 11 30.03 1017 3 4.82802 0.25 6.35
7:21 pm 19:21 Cloudy with Thunderstorms 61 16.1 57 13.9 87 87 NE 20 31 29.97 1015 4 6.43736 0.3 7.62
7:53 pm 19:53 Mostly Cloudy with Nearby Thunderstorms 63 17 N/A N/A ENE 12 19 30 1016 10 16.0934 0.35 8.89
8:00 pm 20:00 Mostly Cloudy 63 17 N/A N/A N 9 15 29.97 1015 10 16.0934 0 0
8:07 pm 20:07 Mostly Cloudy with Nearby Thunderstorms 63 17 N/A N/A N 10 17 29.97 1015 10 16.0934 0 0.0254
8:22 pm 20:22 Cloudy with Light Rain 63 17 N/A N/A NNE 13 20 29.94 1014 10 16.0934 0 0
8:53 pm 20:53 Mostly Cloudy with Light Rain 63 17 N/A N/A E 13 20 29.98 1015 10 16.0934 0.02 0.508
9:53 pm 21:53 Partly Cloudy 61 16.1 61 16.1 100 100 WSW 6 9 29.98 1015 10 16.0934 0.04 1.016

Powered by AerisWeather